Powrót do katalogu

COSMOS 1275 DEB

AktywnyPO
NORAD 12705·DEBRIS·🇷🇺 Russia

Wystrzelony Jun 4, 1981 z Plesetsk Cosmodrome

Loading…

Następne Przeloty (najbliższe 24 godziny)

TLE

ŚwieżeSource: Space-Track

Epoka: Sep 14, 2026, 03:45 UTC

1 12705U 81053AZ  26257.15682984  .00000987  00000-0  59767-3 0  9998
2 12705  82.8890 155.6761 0026839 308.8165 213.9289 14.05371125286539

Śledź COSMOS 1275 DEB w czasie rzeczywistym z AllMySat

Download on the App Store